GW5110 Weather Reports


time (UTC)temp
C
wind
direction
speed
KPH
gust
KPH
rain 1hr
cm
rain 24hr
cm
rain mn
cm
humidity
%
barometer
mb
20260508121824 8 195 0.0 0.0 0.00 0.00 0.00 89 1021.4
20260508121322 8 275 0.0 0.0 0.00 0.00 0.00 91 1021.4
20260508120819 8 276 0.0 0.0 0.00 0.00 0.00 93 1021.4
20260508120317 7 64 0.0 0.0 0.00 0.00 0.00 95 1021.6
20260508115814 7 64 0.0 0.0 0.00 0.00 0.00 96 1021.5
20260508115311 7 38 0.0 0.0 0.00 0.00 0.00 97 1021.2
20260508114808 6 353 0.0 0.0 0.00 0.00 0.00 97 1021.3
20260508114305 5 34 0.0 0.0 0.00 0.00 0.00 98 1021.3
20260508113801 5 159 0.0 0.0 0.00 0.00 0.00 98 1021.3
20260508113300 4 218 0.0 0.0 0.00 0.00 0.00 98 1021.5
20260508112756 3 229 0.0 0.0 0.00 0.00 0.00 98 1021.4
20260508112253 3 270 0.0 0.0 0.00 0.00 0.00 98 1021.2
20260508111749 3 268 0.0 0.0 0.00 0.00 0.00 98 1021.1
20260508111247 1 269 0.0 0.0 0.00 0.00 0.00 98 1021.1
20260508110744 1 268 0.0 0.0 0.00 0.00 0.00 98 1021.0
20260508110242 1 268 0.0 0.0 0.00 0.00 0.00 98 1020.9
20260508105741 1 267 0.0 0.0 0.00 0.00 0.00 98 1021.1
20260508105238 1 263 0.0 0.0 0.00 0.00 0.00 98 1021.0
20260508104735 0 266 0.0 0.0 0.00 0.00 0.00 98 1020.9
20260508104232 0 266 0.0 0.0 0.00 0.00 0.00 98 1021.0
20260508103730 0 266 0.0 0.0 0.00 0.00 0.00 98 1020.8
20260508103226 0 266 0.0 0.0 0.00 0.00 0.00 98 1020.6
20260508102723 0 266 0.0 0.0 0.00 0.00 0.00 98 1020.6
20260508102222 0 266 0.0 0.0 0.00 0.00 0.00 98 1020.6
20260508101718 0 267 0.0 0.0 0.00 0.00 0.00 98 1020.8
20260508101216 0 267 0.0 0.0 0.00 0.00 0.00 98 1020.5
20260508100714 0 266 0.0 0.0 0.00 0.00 0.00 98 1020.8
20260508100212 0 267 0.0 0.0 0.00 0.00 0.00 98 1020.5
20260508095707 0 267 0.0 0.0 0.00 0.00 0.00 98 1020.5
20260508095205 0 266 0.0 0.0 0.00 0.00 0.00 98 1020.4
20260508094701 0 266 0.0 0.0 0.00 0.00 0.00 98 1020.5
20260508094159 0 266 0.0 0.0 0.00 0.00 0.00 98 1020.3
20260508093655 0 266 0.0 0.0 0.00 0.00 0.00 98 1020.4
20260508093154 1 255 0.0 0.0 0.00 0.00 0.00 98 1020.3
20260508092650 1 275 0.0 0.0 0.00 0.00 0.00 98 1020.4
20260508092149 1 197 0.0 0.0 0.00 0.00 0.00 98 1020.3
20260508091646 1 243 0.0 0.0 0.00 0.00 0.00 98 1020.3
20260508091143 1 226 0.0 0.0 0.00 0.00 0.00 98 1020.3
20260508090641 1 266 0.0 0.0 0.00 0.00 0.00 98 1020.2
20260508090137 1 266 0.0 0.0 0.00 0.00 0.00 98 1020.2
20260508085633 1 264 0.0 0.0 0.00 0.00 0.00 98 1020.1
20260508085131 1 260 0.0 0.0 0.00 0.00 0.00 98 1020.0
20260508084627 1 253 0.0 0.0 0.00 0.00 0.00 98 1020.2
20260508084125 1 253 0.0 0.0 0.00 0.00 0.00 98 1020.0
20260508083622 1 263 0.0 0.0 0.00 0.00 0.00 98 1020.1
20260508083119 1 256 0.0 0.0 0.00 0.00 0.00 98 1020.3
20260508082614 1 266 0.0 0.0 0.00 0.00 0.00 98 1020.1
20260508082112 1 201 0.0 0.0 0.00 0.00 0.00 98 1020.1
20260508081609 1 201 0.0 0.0 0.00 0.00 0.00 98 1019.9
20260508081105 1 201 0.0 0.0 0.00 0.00 0.00 98 1019.9
20260508080603 1 201 0.0 0.0 0.00 0.00 0.00 98 1019.8
20260508080101 1 201 0.0 0.0 0.00 0.00 0.00 98 1019.9
20260508075557 1 201 0.0 0.0 0.00 0.00 0.00 98 1019.8
20260508075054 1 201 0.0 0.0 0.00 0.00 0.00 98 1019.7
20260508074552 1 201 0.0 0.0 0.00 0.00 0.00 98 1020.0
20260508074049 1 201 0.0 0.0 0.00 0.00 0.00 97 1019.9
20260508073546 1 201 0.0 0.0 0.00 0.00 0.00 97 1019.8
20260508073044 1 201 0.0 0.0 0.00 0.00 0.00 97 1019.8
20260508072539 1 201 0.0 0.0 0.00 0.00 0.00 97 1020.0
20260508072037 1 201 0.0 0.0 0.00 0.00 0.00 97 1019.8
20260508071535 1 201 0.0 0.0 0.00 0.00 0.00 97 1019.9
20260508071032 1 200 0.0 0.0 0.00 0.00 0.00 97 1019.6
20260508070530 1 200 0.0 0.0 0.00 0.00 0.00 97 1019.7
20260508070028 1 200 0.0 0.0 0.00 0.00 0.00 97 1019.5
20260508065525 1 204 0.0 0.0 0.00 0.00 0.00 97 1019.7
20260508065024 1 204 0.0 0.0 0.00 0.00 0.00 97 1019.7
20260508064520 1 204 0.0 0.0 0.00 0.00 0.00 97 1019.8
20260508064018 1 204 0.0 0.0 0.00 0.00 0.00 97 1019.8
20260508063515 2 204 0.0 0.0 0.00 0.00 0.00 97 1019.8
20260508063013 2 204 0.0 0.0 0.00 0.00 0.00 97 1019.7
20260508062510 2 204 0.0 0.0 0.00 0.00 0.00 97 1020.0
20260508062006 2 204 0.0 0.0 0.00 0.00 0.00 97 1019.8
20260508061505 2 204 0.0 0.0 0.00 0.00 0.00 97 1019.9
20260508061000 2 204 0.0 0.0 0.00 0.00 0.00 97 1019.9
20260508060458 2 204 0.0 0.0 0.00 0.00 0.00 97 1019.9
20260508055954 2 204 0.0 0.0 0.00 0.00 0.00 97 1020.0
20260508055451 2 204 0.0 0.0 0.00 0.00 0.00 97 1020.0
20260508054947 2 204 0.0 0.0 0.00 0.00 0.00 97 1020.0
20260508054445 2 204 0.0 0.0 0.00 0.00 0.00 97 1020.0
20260508053941 2 204 0.0 0.0 0.00 0.00 0.00 97 1020.0
20260508053438 2 204 0.0 0.0 0.00 0.00 0.00 97 1019.9
20260508052936 2 204 0.0 0.0 0.00 0.00 0.00 97 1019.9
20260508052433 2 204 0.0 0.0 0.00 0.00 0.00 96 1019.9
20260508051929 2 204 0.0 0.0 0.00 0.00 0.00 96 1020.0
20260508051425 2 204 0.0 0.0 0.00 0.00 0.00 96 1019.9
20260508050921 2 204 0.0 0.0 0.00 0.00 0.00 96 1019.7
20260508050419 2 204 0.0 0.0 0.00 0.00 0.00 96 1019.6
20260508045915 3 204 0.0 0.0 0.00 0.00 0.00 96 1019.5
20260508045413 3 204 0.0 0.0 0.00 0.00 0.00 96 1019.4
20260508044910 3 204 0.0 0.0 0.00 0.00 0.00 96 1019.4
20260508044407 3 204 0.0 0.0 0.00 0.00 0.00 96 1019.1
20260508043902 3 204 0.0 0.0 0.00 0.00 0.00 96 1019.1
20260508043400 3 204 0.0 0.0 0.00 0.00 0.00 96 1018.9
20260508042856 3 204 0.0 0.0 0.00 0.00 0.00 96 1019.4
20260508042354 3 204 0.0 0.0 0.00 0.00 0.00 96 1019.3
20260508041851 3 204 0.0 0.0 0.00 0.00 0.00 96 1019.1
20260508041347 3 204 0.0 0.0 0.00 0.00 0.00 95 1019.1
20260508040844 3 204 0.0 0.0 0.00 0.00 0.00 95 1018.9
20260508040341 3 204 0.0 0.0 0.00 0.00 0.00 95 1019.3
20260508035838 3 204 0.0 0.0 0.00 0.03 0.03 95 1019.0
20260508035335 3 204 0.0 0.0 0.00 0.03 0.03 95 1019.0
20260508034832 4 204 0.0 0.0 0.00 0.03 0.03 95 1018.8
20260508034329 4 204 0.0 0.0 0.00 0.03 0.03 95 1018.9
20260508033826 4 204 0.0 0.0 0.00 0.03 0.03 95 1018.9
20260508033325 4 204 0.0 0.0 0.00 0.03 0.03 94 1019.1
20260508032822 4 204 0.0 0.0 0.00 0.03 0.03 94 1018.8
20260508032319 4 204 0.0 0.0 0.00 0.03 0.03 94 1018.9
20260508031815 4 204 0.0 0.0 0.00 0.03 0.03 94 1018.8
20260508031312 5 204 0.0 0.0 0.00 0.03 0.03 94 1018.8
20260508030808 5 204 0.0 0.0 0.00 0.03 0.03 93 1018.9
20260508030306 5 204 0.0 0.0 0.00 0.03 0.03 93 1018.9
20260508025802 5 204 0.0 0.0 0.00 0.03 0.03 93 1018.5
20260508025300 5 204 0.0 0.0 0.00 0.03 0.03 93 1018.6
20260508024755 5 204 0.0 0.0 0.00 0.03 0.03 93 1018.6
20260508024252 5 204 0.0 0.0 0.00 0.03 0.03 93 1018.3
20260508023750 5 204 0.0 0.0 0.00 0.03 0.03 92 1018.4
20260508023247 5 204 0.0 0.0 0.00 0.03 0.03 92 1018.4
20260508022742 5 204 0.0 0.0 0.00 0.03 0.03 92 1018.4
20260508022239 5 204 0.0 0.0 0.00 0.03 0.03 92 1018.2
20260508021736 5 204 0.0 0.0 0.00 0.03 0.03 91 1018.1
20260508021226 5 196 0.0 0.0 0.00 0.03 0.03 91 1018.2
20260508020723 5 196 0.0 0.0 0.00 0.03 0.03 90 1018.0
20260508020221 6 196 0.0 0.0 0.00 0.03 0.03 90 1017.9
20260508015718 6 196 0.0 0.0 0.00 0.03 0.03 90 1018.0
20260508015215 6 196 0.0 0.0 0.00 0.03 0.03 89 1017.9
20260508014712 6 213 0.0 0.0 0.00 0.03 0.03 89 1017.9
20260508014209 6 213 0.0 0.0 0.00 0.03 0.03 88 1017.7
20260508013704 6 213 0.0 0.0 0.00 0.03 0.03 88 1017.7
20260508013201 6 213 0.0 0.0 0.00 0.03 0.03 87 1017.7
20260508012659 6 213 0.0 0.0 0.00 0.03 0.03 86 1017.4
20260508012155 7 213 0.0 0.0 0.00 0.03 0.03 86 1017.3
20260508011654 7 213 0.0 0.0 0.00 0.03 0.03 85 1017.3
20260508011151 7 213 0.0 0.0 0.00 0.03 0.03 84 1017.3
20260508010647 7 213 0.0 0.0 0.00 0.03 0.03 84 1017.2
20260508010145 7 213 0.0 0.0 0.00 0.03 0.03 83 1017.2
20260508005642 8 265 0.0 0.0 0.00 0.03 0.03 81 1017.2
20260508005139 8 252 0.0 0.0 0.00 0.03 0.03 80 1017.4
20260508004634 8 247 0.0 0.0 0.00 0.03 0.03 79 1017.1
20260508004131 9 256 0.0 0.0 0.00 0.03 0.03 77 1016.9
20260508003627 9 277 0.0 0.0 0.00 0.03 0.03 75 1016.9
20260508003125 10 247 0.0 0.0 0.00 0.03 0.03 73 1016.8
20260508002621 10 310 0.0 0.0 0.00 0.03 0.03 71 1016.9
20260508002119 10 35 0.0 0.0 0.00 0.03 0.03 70 1016.9
20260508001614 11 262 0.0 0.0 0.00 0.03 0.03 70 1017.0
20260508001110 11 250 0.0 0.0 0.00 0.03 0.03 68 1016.8
20260508000606 11 215 0.0 0.0 0.00 0.03 0.03 68 1016.7
20260508000104 11 247 0.0 0.0 0.00 0.03 0.03 67 1016.9
20260507235600 11 262 0.0 0.0 0.00 0.03 0.03 68 1016.8
20260507235057 11 262 0.0 3.2 0.00 0.03 0.03 68 1016.8
20260507234554 11 255 0.0 0.0 0.00 0.03 0.03 68 1016.7
20260507234050 11 239 0.0 3.2 0.00 0.03 0.03 66 1016.6
20260507233547 12 250 0.0 0.0 0.00 0.03 0.03 66 1016.8
20260507233046 12 239 0.0 0.0 0.00 0.03 0.03 65 1016.6
20260507232542 12 256 0.0 3.2 0.00 0.03 0.03 64 1016.4
20260507232040 12 249 0.0 3.2 0.00 0.03 0.03 63 1016.5
20260507231536 13 204 0.0 4.8 0.00 0.03 0.03 63 1016.6
20260507231034 13 264 0.0 4.8 0.00 0.03 0.03 63 1016.7
20260507230530 12 240 0.0 6.4 0.00 0.03 0.03 64 1016.5
20260507230027 12 262 0.0 3.2 0.00 0.03 0.03 63 1016.2
20260507225521 13 269 11.3 12.9 0.00 0.03 0.03 61 1016.4
20260507225018 13 290 1.6 6.4 0.00 0.03 0.03 61 1016.6
20260507224514 13 258 4.8 9.7 0.00 0.03 0.03 61 1016.5
20260507224010 13 266 0.0 1.6 0.00 0.03 0.03 61 1016.4
20260507223507 13 320 4.8 11.3 0.00 0.03 0.03 61 1016.4
20260507223004 13 189 4.8 14.5 0.00 0.03 0.03 62 1016.5
20260507222502 13 248 6.4 11.3 0.00 0.03 0.03 62 1016.5
20260507221957 13 194 0.0 4.8 0.00 0.03 0.03 63 1016.0
20260507221454 13 247 11.3 16.1 0.00 0.03 0.03 62 1016.2
20260507220951 12 238 1.6 9.7 0.00 0.03 0.03 65 1016.0
20260507220448 12 267 0.0 1.6 0.00 0.03 0.03 66 1016.1
20260507215945 12 265 4.8 11.3 0.00 0.03 0.03 66 1016.2
20260507215441 12 239 0.0 0.0 0.00 0.03 0.03 66 1015.9
20260507214939 12 269 1.6 4.8 0.00 0.03 0.03 67 1015.9
20260507214436 12 283 3.2 4.8 0.00 0.03 0.03 66 1015.9
20260507213932 12 225 0.0 1.6 0.00 0.03 0.03 68 1016.2
20260507213428 12 243 6.4 9.7 0.00 0.03 0.03 66 1015.9
20260507212925 12 355 0.0 4.8 0.00 0.03 0.03 67 1015.9
20260507212420 12 256 3.2 16.1 0.00 0.03 0.03 65 1015.9
20260507211918 12 274 3.2 3.2 0.00 0.03 0.03 67 1015.8
20260507211414 12 264 0.0 4.8 0.00 0.03 0.03 67 1015.6
20260507210911 12 256 0.0 6.4 0.00 0.03 0.03 67 1015.8
20260507210408 12 249 0.0 1.6 0.00 0.03 0.03 69 1015.4
20260507205904 12 261 0.0 1.6 0.00 0.03 0.03 68 1015.6
20260507205402 12 238 3.2 6.4 0.00 0.03 0.03 67 1015.6
20260507204858 12 245 0.0 0.0 0.00 0.03 0.03 68 1015.4
20260507204354 12 258 0.0 11.3 0.00 0.03 0.03 68 1015.6
20260507203852 12 280 1.6 9.7 0.00 0.03 0.03 68 1015.6
20260507203350 11 99 0.0 0.0 0.00 0.03 0.03 69 1015.5
20260507202846 11 254 1.6 6.4 0.00 0.03 0.03 69 1015.5
20260507202337 12 235 6.4 11.3 0.00 0.03 0.03 68 1015.6
20260507201832 11 244 3.2 4.8 0.00 0.03 0.03 69 1015.8
20260507201328 12 264 0.0 0.0 0.00 0.03 0.03 69 1015.8
20260507200824 12 205 0.0 9.7 0.00 0.03 0.03 68 1015.8
20260507200320 12 219 0.0 3.2 0.00 0.03 0.03 68 1015.9
20260507195816 12 247 0.0 9.7 0.00 0.03 0.03 71 1016.0
20260507195314 12 234 9.7 20.9 0.00 0.03 0.03 69 1015.8
20260507194812 12 251 3.2 11.3 0.00 0.03 0.03 69 1015.6
20260507194308 12 239 9.7 12.9 0.00 0.03 0.03 69 1015.8
20260507193805 12 245 0.0 11.3 0.00 0.03 0.03 71 1015.7
20260507193302 12 263 8.0 14.5 0.00 0.03 0.03 68 1015.8
20260507192757 13 281 6.4 12.9 0.00 0.03 0.03 66 1015.7
20260507192254 13 222 4.8 6.4 0.00 0.03 0.03 66 1015.7
20260507191750 13 256 4.8 12.9 0.00 0.03 0.03 67 1016.0
20260507191247 13 255 0.0 6.4 0.00 0.03 0.03 66 1016.1
20260507190743 13 243 1.6 3.2 0.00 0.03 0.03 67 1016.2
20260507190242 12 240 9.7 16.1 0.00 0.03 0.03 67 1016.2
20260507185740 12 293 1.6 6.4 0.00 0.03 0.03 69 1016.6
20260507185237 12 201 0.0 3.2 0.00 0.03 0.03 70 1016.4
20260507184735 12 285 0.0 4.8 0.00 0.03 0.03 70 1016.5
20260507184232 12 247 3.2 6.4 0.00 0.03 0.03 70 1016.5
20260507183729 12 275 1.6 3.2 0.00 0.03 0.03 71 1016.6
20260507183226 12 255 6.4 14.5 0.00 0.03 0.03 70 1016.5
20260507182723 11 250 0.0 12.9 0.00 0.03 0.03 69 1016.4
20260507182218 11 251 8.0 14.5 0.00 0.03 0.03 69 1016.2
20260507181715 11 266 0.0 3.2 0.00 0.03 0.03 70 1016.4
20260507181212 11 257 11.3 12.9 0.00 0.03 0.03 69 1016.5
20260507180709 11 262 6.4 9.7 0.00 0.03 0.03 70 1016.5
20260507180205 11 232 6.4 9.7 0.00 0.03 0.03 70 1016.4
20260507175700 11 226 3.2 12.9 0.00 0.03 0.03 71 1016.6
20260507175158 11 240 8.0 11.3 0.00 0.03 0.03 70 1016.1
20260507174655 11 257 1.6 11.3 0.00 0.03 0.03 72 1016.2
20260507174153 11 228 3.2 9.7 0.00 0.03 0.03 72 1016.4
20260507173650 11 263 3.2 9.7 0.00 0.03 0.03 72 1016.1
20260507173147 12 253 1.6 11.3 0.00 0.03 0.03 72 1016.5
20260507172643 12 247 6.4 9.7 0.00 0.03 0.03 71 1016.0
20260507172141 12 268 0.0 9.7 0.00 0.03 0.03 70 1016.1
20260507171641 12 59 0.0 6.4 0.00 0.03 0.03 71 1016.2
20260507171138 12 268 4.8 11.3 0.00 0.03 0.03 68 1016.1
20260507170635 12 244 6.4 6.4 0.00 0.03 0.03 70 1016.5
20260507170133 12 237 1.6 6.4 0.00 0.03 0.03 71 1016.1
20260507165628 12 244 1.6 6.4 0.00 0.03 0.03 70 1016.4
20260507165124 12 257 0.0 1.6 0.00 0.03 0.03 70 1016.4
20260507164620 12 188 1.6 4.8 0.00 0.03 0.03 71 1016.4
20260507164117 12 259 0.0 9.7 0.00 0.03 0.03 70 1016.6
20260507163615 12 263 1.6 1.6 0.00 0.03 0.03 72 1016.7
20260507163113 12 46 0.0 3.2 0.00 0.03 0.03 72 1016.7
20260507162613 11 231 0.0 0.0 0.00 0.03 0.03 72 1016.6
20260507162110 11 246 6.4 11.3 0.00 0.03 0.03 73 1016.6
20260507161606 11 207 0.0 0.0 0.00 0.03 0.03 74 1016.6
20260507161103 11 173 1.6 4.8 0.00 0.03 0.03 75 1016.6
20260507160600 10 293 0.0 4.8 0.00 0.03 0.03 75 1016.6
20260507160056 10 229 0.0 3.2 0.00 0.03 0.03 75 1016.9
20260507155551 10 270 0.0 6.4 0.00 0.03 0.03 75 1016.9
20260507155049 10 243 0.0 3.2 0.00 0.03 0.03 76 1016.8
20260507154545 10 62 0.0 0.0 0.00 0.03 0.03 77 1017.0
20260507154043 10 275 0.0 0.0 0.00 0.03 0.03 76 1017.0
20260507153539 10 236 0.0 0.0 0.00 0.03 0.03 77 1016.8
20260507153035 10 177 0.0 0.0 0.00 0.03 0.03 77 1017.0
20260507152531 9 258 0.0 0.0 0.00 0.03 0.03 78 1016.9
20260507152028 9 239 0.0 1.6 0.00 0.03 0.03 79 1016.8
20260507151524 9 280 0.0 0.0 0.00 0.03 0.03 79 1017.0
20260507151021 9 238 3.2 9.7 0.00 0.03 0.03 81 1017.1
20260507150518 9 275 0.0 0.0 0.00 0.03 0.03 81 1017.2
20260507150015 9 251 0.0 0.0 0.00 0.03 0.03 83 1017.1
20260507145510 9 352 0.0 0.0 0.00 0.03 0.03 83 1017.1
20260507145008 8 126 0.0 0.0 0.00 0.03 0.03 84 1017.2
20260507144504 9 11 0.0 0.0 0.00 0.03 0.03 86 1017.1
20260507144001 8 43 4.8 6.4 0.00 0.03 0.03 86 1017.0
20260507143459 8 233 0.0 0.0 0.00 0.03 0.03 86 1017.2
20260507142955 8 141 0.0 3.2 0.00 0.03 0.03 86 1017.3
20260507142451 8 251 0.0 0.0 0.00 0.03 0.03 88 1017.1
20260507141948 8 43 0.0 0.0 0.00 0.03 0.03 89 1017.2
20260507141444 8 258 0.0 0.0 0.00 0.03 0.03 89 1017.2
20260507140941 8 109 0.0 4.8 0.00 0.03 0.03 89 1017.2
20260507140438 8 258 0.0 0.0 0.00 0.03 0.03 88 1017.3
20260507135936 8 163 0.0 0.0 0.00 0.03 0.03 89 1017.3
20260507135432 8 124 0.0 0.0 0.00 0.03 0.03 89 1017.1
20260507134930 8 245 0.0 0.0 0.00 0.03 0.03 90 1017.1
20260507134426 8 238 0.0 0.0 0.00 0.03 0.03 91 1017.0
20260507133922 8 333 0.0 0.0 0.00 0.03 0.03 91 1017.3
20260507133418 8 248 0.0 1.6 0.00 0.03 0.03 92 1017.2
20260507132917 8 59 0.0 0.0 0.00 0.03 0.03 92 1017.1
20260507132413 8 71 0.0 3.2 0.00 0.03 0.03 92 1017.3
20260507131909 8 75 0.0 0.0 0.00 0.03 0.03 93 1017.3
20260507131406 7 268 0.0 0.0 0.00 0.03 0.03 93 1017.6
20260507130903 8 69 0.0 1.6 0.00 0.03 0.03 93 1017.5
20260507130400 8 192 0.0 0.0 0.00 0.03 0.03 93 1017.5
20260507125859 8 256 0.0 3.2 0.00 0.03 0.03 94 1017.4
20260507125356 8 31 0.0 1.6 0.00 0.03 0.03 94 1017.1
20260507124854 8 89 0.0 0.0 0.00 0.03 0.03 94 1017.3
20260507124349 8 110 0.0 0.0 0.00 0.03 0.03 95 1017.2
20260507123848 8 266 0.0 0.0 0.00 0.03 0.03 95 1017.6
20260507123345 8 291 0.0 0.0 0.00 0.03 0.03 95 1017.5
20260507122841 8 23 0.0 6.4 0.00 0.03 0.03 96 1017.2
20260507122337 8 287 0.0 0.0 0.00 0.03 0.03 96 1017.4